TimeEST,TemperatureF,Dew PointF,Humidity,Sea Level PressureIn,VisibilityMPH,Wind Direction,Wind SpeedMPH,Gust SpeedMPH,PrecipitationIn,Events,Conditions,WindDirDegrees,DateUTC
12:55 AM,68.5,63.9,85,30.05,10.0,North,8.1,-,N/A,,Clear,350,2012-11-18 05:55:00
1:55 AM,67.8,63.9,87,30.04,10.0,NNW,6.9,-,N/A,,Clear,340,2012-11-18 06:55:00
2:55 AM,66.7,63.5,89,30.03,10.0,North,6.9,-,N/A,,Clear,350,2012-11-18 07:55:00
3:55 AM,66.7,63.9,90,30.03,10.0,North,5.8,-,N/A,,Clear,360,2012-11-18 08:55:00
4:55 AM,66.6,63.9,91,30.04,10.0,North,4.6,-,N/A,,Clear,360,2012-11-18 09:55:00
5:55 AM,66.2,63.9,92,30.05,10.0,North,6.9,-,N/A,,Clear,350,2012-11-18 10:55:00
6:55 AM,66.2,63.9,92,30.06,10.0,North,6.9,-,N/A,,Partly Cloudy,350,2012-11-18 11:55:00
7:55 AM,68.7,66.0,91,30.08,10.0,North,9.2,-,N/A,,Clear,350,2012-11-18 12:55:00
8:55 AM,72.9,66.7,81,30.09,10.0,North,10.4,-,N/A,,Clear,360,2012-11-18 13:55:00
9:55 AM,76.5,67.1,73,30.09,10.0,NNE,10.4,-,N/A,,Clear,20,2012-11-18 14:55:00
10:55 AM,79.3,65.8,63,30.09,10.0,NE,16.1,-,N/A,,Clear,50,2012-11-18 15:55:00
11:55 AM,80.6,67.1,63,30.08,10.0,ENE,15.0,-,N/A,,Clear,60,2012-11-18 16:55:00
12:55 PM,79.7,66.2,63,30.06,10.0,ENE,13.8,-,N/A,,Clear,70,2012-11-18 17:55:00
1:55 PM,79.3,65.1,62,30.05,10.0,NE,19.6,-,N/A,,Partly Cloudy,40,2012-11-18 18:55:00
2:55 PM,79.5,66.2,64,30.04,10.0,NE,15.0,21.9,N/A,,Clear,50,2012-11-18 19:55:00
3:55 PM,79.3,65.3,62,30.05,10.0,NE,17.3,-,N/A,,Scattered Clouds,40,2012-11-18 20:55:00
4:55 PM,77.0,65.5,67,30.05,10.0,NE,13.8,-,N/A,,Partly Cloudy,50,2012-11-18 21:55:00
5:55 PM,74.7,66.0,74,30.07,10.0,NE,10.4,-,N/A,,Clear,50,2012-11-18 22:55:00
6:55 PM,73.0,64.9,76,30.09,10.0,NNE,8.1,-,N/A,,Clear,20,2012-11-18 23:55:00
7:55 PM,72.0,64.2,77,30.10,10.0,NNW,6.9,-,N/A,,Clear,340,2012-11-19 00:55:00
8:55 PM,71.6,64.2,77,30.12,10.0,North,9.2,-,N/A,,Clear,360,2012-11-19 01:55:00
9:55 PM,70.2,63.9,80,30.12,10.0,North,10.4,-,N/A,,Clear,10,2012-11-19 02:55:00
10:55 PM,69.3,64.0,83,30.12,10.0,North,9.2,-,N/A,,Scattered Clouds,10,2012-11-19 03:55:00
11:55 PM,69.1,63.9,83,30.12,10.0,NNW,6.9,-,N/A,,Partly Cloudy,340,2012-11-19 04:55:00